Погода в Ракитном

Россия / Хабаровский край     48°24′17″N   135°11′39″E
темп.,
°C
ветер,
м/с
пор.,
м/с
влажн.,
%
обл.,
%
осадки,
мм/ч
давл.,
гПа
погр.,
м
23 апреля, пт
пт2301:00+14ююз344193 0.0 101946
04:00+13ююз3546100 0.0 101956
07:00+12ю3554100 0.0 101992
10:00+16юз343899 0.0 1020461
13:00+19зюз5734100 0.0 10191075
16:00+20юз6840100 0.0 10181411
19:00+18юз4947100 0.0 1017251
22:00+14зсз51060100 0.1 1018642
24 апреля, сб
сб2401:00+11зсз71237100 0.0 1019642
04:00+5св5980100 0.1 1021460
07:00+2св5993100 0.1 1022469
10:00+3с2387100 0.3 1022408
13:00+8з456097 0.1 10201419
16:00+13зсз79204 0.1 10162746
19:00+10ссз61030100 0.0 10161072
22:00+6с343734 0.0 101769
25 апреля, вс
вс2501:00+4з224220 0.0 101524
04:00+4зсз6114586 0.0 1013488
07:00+3сз5953100 0.0 10141081
10:00+5ссв81141100 0.0 10162019
13:00+8ссв6924100 0.0 10183475
16:00+9св5819100 0.0 10172963
19:00+8в222239 0.0 10181045
22:00+4ююв36350 0.0 1019106
26 апреля, пн
пн2601:00+2ю37395 0.0 1019127
04:00+1юз35415 0.0 101869
07:00+2юз3742100 0.0 1018139
10:00+10зюз57249 0.0 1017853
13:00+13зюз452191 0.0 10161828
16:00+15зюз4519100 0.0 10142066
19:00+13ююз2428100 0.0 101284
22:00+10ююв3431100 0.0 101259
27 апреля, вт
вт2701:00+9ююв41036100 0.0 1011206
04:00+9ю41043100 0.0 1010256
07:00+9ююв51051100 0.0 1010359
10:00+14ю574093 0.0 1009860
13:00+19ююз5736100 0.0 10071503
16:00+20ююз81236100 0.0 10052234
19:00+19ююз51041100 0.0 1004543
22:00+14ююз3656100 0.0 1005130